Kinston, NC

6:00 AM EDT on May 21, 2018 (GMT -0400)
Kinston Regional Jetport / Stallings Field

Weather History for KISO - October, 2011

Change the Weather History Date:

Sunday, October 30, 2011

  Actual Average Record
Temperature  
Mean Temperature 44 °F -  
Max Temperature 57 °F 69 °F 86 °F (1996)
Min Temperature 30 °F 47 °F 30 °F (2008)
Degree Days  
Heating Degree Days 22    
Moisture  
Dew Point 32 °F    
Average Humidity 87    
Maximum Humidity 100    
Minimum Humidity 31    
Precipitation  
Precipitation 0.00 in - - ()
Sea Level Pressure  
Sea Level Pressure 30.25 in    
Wind  
Wind Speed 1 mph (NNE)    
Max Wind Speed 12 mph    
Max Gust Speed -    
Visibility 10 miles    
Events      
Averages and records for this station are not official NWS values.
T = Trace of Precipitation, MM = Missing Value Source: NWS Daily Summary

Daily Weather History Graph

Daily Weather History Graph

Search for Another Location

Airport or City:

Astronomy

Oct. 30, 2011 Rise Set
Actual Time 7:29 AM EDT 6:17 PM EDT
Civil Twilight 7:03 AM EDT 6:44 PM EDT
Nautical Twilight 6:33 AM EDT 7:14 PM EDT
Astronomical Twilight 6:04 AM EDT 7:43 PM EDT
Moon 11:40 AM EDT (10/30) 9:50 PM EDT (10/30)
Length of Visible Light 11h 40m
Length of Day
10h 48m
Waxing Crescent, 20% of the Moon is Illuminated
Oct 30
Waxing Crescent
Nov 2
First Quarter
Nov 10
Full
Nov 18
Last Quarter
Nov 25
New

Hourly Weather History & Observations

Time (EDT) Temp. Dew Point Humidity Pressure Visibility Wind Dir Wind Speed Gust Speed Precip Events Conditions
12:15 AM 35.6 °F 35.6 °F 100% 30.13 in 10.0 mi Calm Calm - N/A   Clear
12:35 AM 35.6 °F 33.8 °F 93% 30.13 in 10.0 mi Calm Calm - N/A   Clear
12:55 AM 33.8 °F 33.8 °F 100% 30.14 in 10.0 mi Calm Calm - N/A   Clear
1:15 AM 33.8 °F 32.0 °F 93% 30.14 in 10.0 mi Calm Calm - N/A   Clear
1:35 AM 33.8 °F 32.0 °F 93% 30.14 in 10.0 mi Calm Calm - N/A   Clear
1:55 AM 32.0 °F 32.0 °F 100% 30.14 in 10.0 mi Calm Calm - N/A   Clear
2:15 AM 32.0 °F 32.0 °F 100% 30.15 in 4.0 mi Calm Calm - N/A   Clear
2:35 AM 32.0 °F 32.0 °F 100% 30.16 in 10.0 mi Calm Calm - N/A   Clear
2:55 AM 32.0 °F 32.0 °F 100% 30.16 in 10.0 mi Calm Calm - N/A   Clear
3:15 AM 32.0 °F 32.0 °F 100% 30.17 in 10.0 mi Calm Calm - N/A   Clear
3:35 AM 32.0 °F 32.0 °F 100% 30.18 in 10.0 mi Calm Calm - N/A   Clear
3:55 AM 32.0 °F 32.0 °F 100% 30.17 in 10.0 mi Calm Calm - N/A   Clear
4:15 AM 32.0 °F 32.0 °F 100% 30.17 in 10.0 mi Calm Calm - N/A   Clear
4:55 AM 32.0 °F 30.2 °F 93% 30.18 in 10.0 mi Calm Calm - N/A   Clear
5:15 AM 32.0 °F 32.0 °F 100% 30.20 in 10.0 mi Calm Calm - N/A   Clear
5:35 AM 32.0 °F 30.2 °F 93% 30.20 in 10.0 mi Calm Calm - N/A   Clear
5:55 AM 32.0 °F 30.2 °F 93% 30.22 in 10.0 mi Calm Calm - N/A   Clear
6:15 AM 32.0 °F 30.2 °F 93% 30.22 in 10.0 mi Calm Calm - N/A   Clear
6:35 AM 32.0 °F 30.2 °F 93% 30.23 in 10.0 mi Calm Calm - N/A   Clear
6:55 AM 30.2 °F 30.2 °F 100% 30.24 in 10.0 mi Calm Calm - N/A   Clear
6:56 AM 30.2 °F 30.2 °F 100% 30.24 in 10.0 mi Calm Calm - N/A   Clear
8:56 AM 37.4 °F 35.6 °F 93% 30.30 in 10.0 mi Calm Calm - N/A   Clear
12:56 PM 53.6 °F 30.2 °F 41% 30.32 in 10.0 mi North 8.1 mph - N/A   Clear
1:56 PM 55.4 °F 28.4 °F 36% 30.30 in 10.0 mi North 10.4 mph - N/A   Clear
2:56 PM 57.2 °F 26.6 °F 31% 30.29 in 10.0 mi North 11.5 mph - N/A   Clear
3:56 PM 57.2 °F 26.6 °F 31% 30.29 in 10.0 mi ENE 9.2 mph - N/A   Clear
4:56 PM 57.2 °F 28.4 °F 33% 30.29 in 10.0 mi North 5.8 mph - N/A   Clear
6:56 PM 42.8 °F 35.6 °F 76% 30.32 in 10.0 mi Calm Calm - N/A   Clear
7:56 PM 41.0 °F 35.6 °F 81% 30.34 in 10.0 mi Calm Calm - N/A   Clear
8:56 PM 37.4 °F 33.8 °F 87% 30.34 in 10.0 mi Calm Calm - N/A   Clear
9:15 PM 35.6 °F 33.8 °F 93% 30.35 in 10.0 mi Calm Calm - N/A   Clear
9:35 PM 35.6 °F 32.0 °F 87% 30.35 in 10.0 mi Calm Calm - N/A   Clear
9:55 PM 35.6 °F 33.8 °F 93% 30.36 in 10.0 mi Calm Calm - N/A   Clear
9:56 PM 35.6 °F 33.8 °F 93% 30.36 in 10.0 mi Calm Calm - N/A   Clear
10:15 PM 35.6 °F 32.0 °F 87% 30.37 in 10.0 mi Calm Calm - N/A   Clear
10:35 PM 33.8 °F 32.0 °F 93% 30.37 in 10.0 mi Calm Calm - N/A   Clear
10:55 PM 33.8 °F 32.0 °F 93% 30.38 in 10.0 mi Calm Calm - N/A   Clear
11:15 PM 33.8 °F 32.0 °F 93% 30.38 in 10.0 mi Calm Calm - N/A   Clear
11:35 PM 33.8 °F 32.0 °F 93% 30.38 in 10.0 mi Calm Calm - N/A   Clear
11:55 PM 33.8 °F 32.0 °F 93% 30.38 in 10.0 mi Calm Calm - N/A   Clear